Skip Page Navigation
NASA JPL Caltech
NASA Logo - Jet Propulsion Laboratory + View the NASA Portal
+ Center for Near-Earth Object Studies
JPL Home Earth Solar System Stars & Galaxies Technology
JPL Solar System Dynamics
BODIES ORBITS EPHEMERIDES TOOLS PHYSICAL DATA DISCOVERY FAQ SITE MAP
JPL Small-Body Database Browser
Search: [ help ]  
15175 (6113 P-L)
Classification: Main-belt Asteroid          SPK-ID: 2015175
Ephemeris | Orbit Diagram | Orbital Elements | Mission Design | Physical Parameters | Discovery Circumstances ]

[ show orbit diagram ]
Orbital Elements at Epoch 2459000.5 (2020-May-31.0) TDB
Reference: JPL 26 (heliocentric ecliptic J2000)
 Element Value Uncertainty (1-sigma)   Units 
e .1381600901337843 3.8693e-08  
a 2.559785915258136 9.0971e-09 au
q 2.20612566248288 1.0058e-07 au
i 1.17433212134247 5.3507e-06 deg
node 331.0336902856674 0.00016248 deg
peri 320.1147867916035 0.00016339 deg
M 263.1698807838865 1.7008e-05 deg
tp 2459402.857276977664
(2021-Jul-07.35727698)
7.1067e-05 TDB
period 1495.904589239161
4.10
7.9743e-06
2.183e-08
d
yr
n .2406570596745755 1.2829e-09 deg/d
Q 2.913446168033391 1.0354e-08 au
  Orbit Determination Parameters
   # obs. used (total)      1350  
   data-arc span      21766 days (59.59 yr)  
   first obs. used      1960-09-24  
   last obs. used      2020-04-28  
   planetary ephem.      DE431  
   SB-pert. ephem.      SB431-N16  
   condition code      0  
   norm. resid. RMS      .52491  
   source      ORB  
   producer      Otto Matic  
   solution date      2020-May-20 04:08:36  

Additional Information
 Earth MOID = 1.19005 au 
 Jupiter MOID = 2.25088 au 
 T_jup = 3.422 
[ hide covariance matrix ]
Orbital Elements at Epoch 2456583.5 (2013-Oct-18.0) TDB
Reference: JPL 26 (heliocentric ecliptic J2000)
 Element Value Uncertainty (1-sigma)   Units 
e .1395830351972527 3.8782e-08  
q 2.202172191230161 1.0099e-07 au
tp 2456407.853930986746
(2013-Apr-25.35393099)
6.8662e-05 TDB
node 331.1099118080944 0.00016203 deg
peri 319.5204213098692 0.00016291 deg
i 1.177527535881316 5.3513e-06 deg
  Orbit Determination Parameters
   # obs. used (total)      1350  
   data-arc span      21766 days (59.59 yr)  
   first obs. used      1960-09-24  
   last obs. used      2020-04-28  
   planetary ephem.      DE431  
   SB-pert. ephem.      SB431-N16  
   condition code      0  
   norm. resid. RMS      .52491  
   source      ORB  
   producer      Otto Matic  
   solution date      2020-May-20 04:08:36  

Additional Information
 Jupiter MOID = 2.25088 au 
 T_jup = 3.422 
Orbit Covariance (6×6)
  e q tp node peri i
e 1.50400740801327E-15 -3.905111302228941E-15 1.284762797759329E-12 -1.543841996464989E-15 3.218263563224581E-13 6.69463853027569E-17
q -3.905111302228941E-15 1.019860750694561E-14 -3.305429549182894E-12 2.448005890581432E-15 -8.262345007330445E-13 -1.745440365281395E-16
tp 1.284762797759329E-12 -3.305429549182894E-12 4.714461892704211E-9 -9.923651020741878E-12 1.171704450571819E-9 -2.178147659334449E-13
node -1.543841996464989E-15 2.448005890581432E-15 -9.923651020741878E-12 2.625214946529109E-8 -2.624870022177299E-8 1.338962072620266E-10
peri 3.218263563224581E-13 -8.262345007330445E-13 1.171704450571819E-9 -2.624870022177299E-8 2.653975060667695E-8 -1.339220491771732E-10
i 6.69463853027569E-17 -1.745440365281395E-16 -2.178147659334449E-13 1.338962072620266E-10 -1.339220491771732E-10 2.863677611545098E-11

Ephemeris | Orbit Diagram | Orbital Elements | Mission Design | Physical Parameters | Discovery Circumstances ]

Physical Parameter Table
Parameter Symbol Value Units Sigma Reference Notes
absolute magnitude H 14.8   n/a MPO358778  

15175 (6113 P-L)          Discovered 1960-Sep-24 by van Houten, C. J., van Houten-Groeneveld, I., Gehrels, T. at Palomar
Reference: 20000523/Numbers.arcLast Updated: 2004-04-19

Alternate Designations
 6113 P-L = 1997 TU7 
Ephemeris | Orbit Diagram | Orbital Elements | Mission Design | Physical Parameters | Discovery Circumstances ]
ABOUT SSD CREDITS/AWARDS PRIVACY/COPYRIGHT GLOSSARY LINKS
FirstGov 2020-Aug-14 11:22 UT
(server date/time)  
NASA Home Page
Site Manager:   Ryan S. Park
Webmaster  Alan B. Chamberlin